Regional Weather Roundup
Issued by NWS Wakefield, VA

Home | Current Version | Previous Version | Text Only | Print | Product List | Glossary On
Versions: 1 2 3 4 5 6 7 8 9 10 11 12 13 14 15 16 17 18 19 20 21 22 23 24 25 26 27
000
ASUS41 KAKQ 230915
RWRAKQ

REGIONAL WEATHER ROUNDUP
NATIONAL WEATHER SERVICE WAKEFIELD VA
400 AM EST THU NOV 23 2017

Note: "fair" indicates few or no clouds below 12,000 feet with no
significant weather and/or obstructions to visibility. * = Denotes
station may not report precipitation (e.g., rain,snow,etc.),
thunder or fog.

VAZ042-051-052>054-056-231000-
NORTHERN VIRGINIA

CITY           SKY/WX    TMP DP  RH WIND       PRES   REMARKS
WASH NATIONAL  PTCLDY    34  23  64 NW8       30.18S
DULLES         CLOUDY    29  22  75 NW5       30.17S
FORT BELVOIR   CLEAR     27  23  86 CALM      30.17F
QUANTICO       CLOUDY    30  24  78 NW6       30.20S
FREDERICKSBRG* CLOUDY    28  26  91 CALM      30.17F
STAFFORD*      CLOUDY    24  24 100 CALM      30.21F
WARRENTON      NOT AVBL
CULPEPER*      CLOUDY    25  21  85 CALM      30.17F
MANASSAS*      CLOUDY    22  20  92 SE3       30.18F
LEESBURG*      CLOUDY    32  25  74 NW7       30.17F
WINCHESTER     CLOUDY    27  19  74 NW3       30.16S
FRONT ROYAL*   CLOUDY    25  23  93 MISG      30.15S
LURAY*         CLOUDY    25  23  93 CALM      30.15S
$$

VAZ048-049-060>072-079>083-231000-
CENTRAL AND SOUTH CENTRAL VIRGINIA

CITY           SKY/WX    TMP DP  RH WIND       PRES   REMARKS
RICHMOND       PTCLDY    34  23  64 N3        30.17S
CHESTERFIELD*  NOT AVBL
PETERSBURG*    CLOUDY    28  12  50 CALM      30.17F
HANOVER        PTCLDY    30  24  78 CALM      30.18S
TAPPAHANNOCK*    N/A    N/A N/A N/A MISG        N/A
QUINTON*       FAIR      34  24  66 CALM      30.17S
CHARLOTTSVILLE CLOUDY    29  22  75 CALM      30.14F
GORDONSVILLE*  CLOUDY    23  23  97 MISG      30.15S
ORANGE*        CLOUDY    23  21  93 CALM      30.15F
LOUISA*        CLOUDY    23  21  93 CALM      30.19F
BUMPASS*       FAIR      28  24  85 CALM      30.15F
FARMVILLE*     PTCLDY    28  28 100 CALM      30.15F
CREWE*         FAIR      28  28 100 CALM      30.16F
FORT PICKETT*  FAIR      31  25  77 CALM      30.15F
CHASE CITY*    FAIR      31  26  83 CALM      30.16S
CLARKSVILLE*   FAIR      34  28  80 CALM      30.16F
SOUTH HILL*    PTCLDY    31  29  90 N3        30.22S
LAWRENCEVILLE* FAIR      34  24  67 CALM      30.16S
EMPORIA*       CLOUDY    32  28  86 CALM      30.18F
$$

VAZ088>098-231000-
SOUTHEAST VIRGINIA

CITY           SKY/WX    TMP DP  RH WIND       PRES   REMARKS
NORFOLK        PTCLDY    42  32  67 N12       30.14F
VIRGINIA BEACH MOCLDY    41  31  67 N7        30.13S
NORFOLK NAVAL  CLOUDY    40  29  64 N10       30.16F
WEST POINT*    PTCLDY    32  24  72 CALM      30.19S
SALUDA*        FAIR      37  28  70 N9        30.16F
NEWPORT NEWS   CLOUDY    36  27  69 N5        30.16S
LANGLEY AFB    PTCLDY    37  27  69 NW8       30.15S
FORT EUSTIS    PTCLDY    38  26  63 N5        30.14S
WILLIAMSBURG*  PTCLDY    36  27  69 CALM      30.17S
HR EXEC AP*    NOT AVBL
FRANKLIN*      PTCLDY    33  27  77 N3        30.16F
US460-WAKEFLD  CLOUDY    32  27  81 N3        30.16F
$$

VAZ020-022-025-037-045-231000-
WEST CENTRAL AND SOUTHWEST VIRGINIA

CITY           SKY/WX    TMP DP  RH WIND       PRES   REMARKS
STAUNTON*      CLOUDY    17  15  90 CALM      30.14F
WAYNESBORO*    CLOUDY    23  20  90 CALM      30.11F
HOT SPRINGS VA CLOUDY    24  19  81 W14       30.02F WCI  12
LYNCHBURG      CLOUDY    26  22  84 CALM      30.14F
DANVILLE       CLOUDY    28  26  92 CALM      30.16S
SOUTH BOSTON*  FAIR      29  26  89 CALM      30.17S
MARTINSVILLE   PTCLDY    27  23  87 CALM      30.17S
ROANOKE        PTCLDY    30  23  75 NE3       30.15F
BLACKSBURG     CLOUDY    23  21  93 CALM      30.13F
DUBLIN*        CLOUDY    25  22  87 S5        30.12F
MARION*        CLOUDY    22  19  87 CALM      30.11F
HILLSVILLE*    CLOUDY    27  23  84 CALM      30.07F
RICHLANDS*     FAIR      25  23  90 CALM      30.08F
WISE*          CLOUDY    27  25  93 CALM      30.09S
ABINGDON*      CLOUDY    29  24  84 SE3       30.10F
$$

MDZ021>025-VAZ099-100-231000-
SOUTHERN MARYLAND AND THE DELMARVA PENINSULA

CITY           SKY/WX    TMP DP  RH WIND       PRES   REMARKS
PATUXENT RIVER CLOUDY    34  26  72 W8        30.17S
BAY BRIDGE APT CLEAR     36  25  64 N9G18     30.16F
LEONARDTOWN    CLOUDY    30  27  86 CALM      30.19S
DOVER          CLEAR     32  26  80 NW6       30.15S
GEORGETOWN     CLOUDY    33  24  69 CALM      30.15F
EASTON         CLEAR     35  24  63 CALM      30.19S
CAMBRIDGE      CLEAR     36  25  64 N8        30.16S
SALISBURY      CLOUDY    32  26  78 CALM      30.15S
OCEAN CITY     CLOUDY    33  25  72 NW7       30.15S
WALLOPS ISLAND PTCLDY    35  26  69 NW3       30.16R
ACCOMACK*      CLOUDY    36  28  71 NE3       30.15F
$$

NCZ012>017-030>032-231000-
NORTH CENTRAL AND EASTERN NORTH CAROLINA

CITY           SKY/WX    TMP DP  RH WIND       PRES   REMARKS
ROANOKE RAPIDS FAIR      34  30  86 CALM      30.16F
RALEIGH        CLOUDY    36  26  67 CALM      30.15F
ELIZABETH CITY PTCLDY    41  34  76 N14       30.13F
AHOSKIE*       PTCLDY    35  28  75 N3        30.16F
EDENTON*       PTCLDY    37  32  85 CALM      30.15S
CURRITUCK*     PTCLDY    38  33  81 N5        30.13F
KILL DEVIL HLS PTCLDY    46  35  65 N6        30.09F
MANTEO         PTCLDY    46  37  70 NE10G16   30.11F
CAPE HATTERAS  CLOUDY    51  41  68 NE9       30.09S
TARBORO*       NOT AVBL
GOLDSBORO      CLOUDY    41  29  63 N7        30.12F
WASHINGTON     MOCLDY    37  31  79 N5        30.14F
GREENVILLE     CLOUDY    37  32  81 N6        30.15F
NEW BERN       CLOUDY    40  35  83 N9        30.13F
WILMINGTON     MOCLDY    46  37  71 NE14      30.11R
$$

VAZ048-231000-
ELSEWHERE

CITY           SKY/WX    TMP DP  RH WIND       PRES   REMARKS
HARRISBURG PA  PTCLDY    31  19  61 NW8       30.13F
BALTIMORE      PTCLDY    29  22  75 CALM      30.16F
ANNAPOLIS      NOT AVBL
ANDREWS AFB    CLEAR     31  21  68 NW3       30.15F
PHILADELPHIA   CLEAR     33  19  56 NW3       30.14F
HENDERSON NC   CLOUDY    32  26  77 CALM      30.16S
GREENSBORO     PTCLDY    35  25  66 N3        30.13F
ROCKY MOUNT    CLOUDY    36  31  82 N5        30.15F
$$

VAZ100-231000-
MARINE

STATION/POSITION TIME  TEMP    WIND        PRES    WAVE   SWELL
                       AIR SEA DIR/SP/G            HT/PER HT/PER
                 (UTC) (F)     (DEG/KT/KT) (MB)    (FT/S) (FT/S)
BRANDYWINE LGT   0842   38     360/ 20/ 23 1020.6F
CAPE MAY NJ      0848   38 49  350/  8/ 14 1020.0S
LEWES DE         0842   38 50  300/ 16/ 19 1020.2F
15NM E FENWICK I 0850   42 57  330/ 14/ 17 1020.3S   4/ 5   3/10
OCEAN-CITY-INLET 0842   37 53  340/  9/ 11 1021.1R
WACHAPREAGUE VA  0842   37 49  360/  5/  7 1021.0S
THOMAS POINT MD  0900   36 51  320/ 11/ 13   N/A
GOOSES REEF MD   0850   39     350/ 14/ 17 1017.1R
COVE POINT MD    0842   38     360/ 15/ 19 1022.1R
SOLOMONS ISLAND  0842   38 53  330/  6/ 10 1021.4R
BISHOPS HEAD MD  0842   32 47  330/  4/  8 1021.4F
PINEY POINT MD   0842           10/ 13/ 14   N/A
POTOMAC MD       0850   39     350/ 14/ 16 1020.6F
CAMBRIDGE MD     0842   37 49              1022.0R
LEWISETTA VA     0842   39 50   10/ 11/ 16 1021.3F
RAPPAHANNOCK LGT 0842           10/ 15/ 18 1021.3S
STINGRAY PT      0850   40     360/ 12/ 14 1021.2F
YORK RVR RNG VA  0842   40     350/ 14/ 16 1021.6F
YORKTOWN VA      0842   38 54  340/  9/ 12 1021.1F
JAMESTOWN VA     0850          360/  6/ 10   N/A
DOMINION TERM VA 0842   40     350/  2/  5 1021.4R
KIPTOPEKE VA     0842      53   60/  4/  5   N/A
CAPE HENRY VA    0842   44      10/ 15/ 17   N/A
WILLOUBY STN VA  0842   40     340/ 11/ 12 1020.9F
S CRANEY ISL VA  0842   41     360/  9/ 12 1020.9S
CAPE HENRY BUOY  0900      59                N/A     4/10   2/11
1ST LANDING BUOY 0850   44      20/ 14/ 17 1020.7F
CAPE CHARLES BUO 0851      58                N/A     4/ 9   2/11
64NM E OF VA BCH 0850   49 61  350/ 16/ 19 1019.4F   7/ 9   5/ 9
DUCK PIER NC     0842   48 59   10/ 15/ 17 1018.9F
44100 DUCK FRF   0845      61                N/A     6/10   2/11
44056 DUCK FRF   0900      61                N/A     6/ 9   2/11
OREGON INLET NC  0842   49 59   10/ 11/ 15 1019.0F
HATTERAS NC      0842   52 59   20/ 16/ 19 1018.5F
DIAMOND SHLS NC  0900   56 72   10/ 17/ 23 1018.3
CAPE LOOKOUT NC  0900           20/ 13/ 16 1018.9F
$$




USA.gov is the U.S. government's official web portal to all federal, state and local government web resources and services.